SCP
0 0 0 0 0 0 0 0 0 0 0 0 0 0 0 0 0 0 0 0 0 0 0 0 0 0 0 0 0 0 0 0 0 0 0 0 0 0 0 0 0 0 0 0
0 0 0 0 0 0 0 0 0 0 0 0 0 0 0 0 0 0 0 0 0 0 0 0 0 0 0 0 0 0 0 0 0 0 0 0 0 0 0 0 0 0 0 0
0 0 0 0 0 0 0 0 0 0 0 0 0 0 0 0 0 0 0 0 0 0 0 0 0 0 0 0 0 0 0 0 0 0 0 0 0 0 0 0 0 0 0 0
0 0 0 0 0 0 0 0 0 0 0 0 0 0 0 0 0 0 0 0 0 0 0 0 0 0 0 0 0 0 0 0 0 0 0 0 0 0 0 0 0 0 0 0
0 0 0 0 0 0 0 0 0 0 0 0 0 0 0 0 0 0 0 0 0 0 0 0 0 0 0 0 0 0 0 0 0 0 0 0 0 0 0 0 0 0 0 0
0 0 0 0 0 0 0 0 0 0 0 0 0 0 0 0 0 0 0 0 0 0 0 0 0 0 0 0 0 0 0 0 0 0 0 0 0 0 0 0 0 0 0 0
0 0 0 0 0 0 0 0 0 0 0 0 0 0 0 0 0 0 0 0 0 0 0 0 0 0 0 0 0 0 0 0 0 0 0 0 0 0 0 0 -0 0 0 0
0 0 0 0 0 0 0 0 0 0 0 0 0 0 0 0 0 0 0 0 0 0 0 0 0 0 0 0 0 0 0 0 0 0 0 0 0 0 0 -0 0 -0 -0 0
0 0 0 0 0 0 0 0 0 0 0 0 0 0 0 0 0 0 0 0 0 0 0 0 0 0 0 0 0 0 0 0 0 0 0 0 0 0 0 0 0 0 0 0
0 0 0 0 0 0 0 0 0 0 0 0 0 0 0 0 0 0 0 0 0 0 0 0 0 0 0 0 0 0 0 0 0 0 0 0 0 0 0 0 0 0 0 0
0 0 0 0 0 0 0 0 0 0 0 0 0 0 0 0 0 0 0 0 0 0 0 0 0 0 0 0 0 0 0 0 0 0 0 0 0 0 0 0 0 0 0 0
0 0 0 0 0 0 0 0 0 0 0 0 0 0 0 0 0 0 0 0 0 0 0 0 0 0 0 0 0 0 0 0 0 0 0 0 0 0 0 0 0 0 0 0
0 0 0 0 0 0 0 0 0 0 0 0 0 0 0 0 0 0 0 0 0 0 0 0 0 0 0 0 0 0 0 0 0 0 0 0 0 0 0 0 0 0 0 0
0 0 0 0 0 0 0 0 0 0 0 0 0 0 0 0 0 0 0 0 0 0 0 0 0 0 0 0 0 0 0 0 0 0 0 0 0 0 0 0 0 0 0 0
0 0 0 0 0 0 0 0 0 0 0 0 0 0 0 0 0 0 0 0 0 0 0 0 0 0 0 0 0 0 0 0 0 0 0 0 0 0 0 0 0 0 0 0
0 0 0 0 0 0 0 0 0 0 0 0 0 0 0 0 0 0 0 0 0 0 0 0 0 0 0 0 0 0 0 0 0 0 0 0 0 0 0 0 0 0 0 0
0 0 0 0 0 0 0 0 0 0 0 0 0 0 0 0 0 0 0 0 0 0 0 0 0 0 0 0 0 0 0 0 0 0 0 0 0 0 0 0 0 0 0 0
0 0 0 0 0 0 0 0 0 0 0 0 0 0 0 0 0 0 0 0 0 0 0 0 0 0 0 0 0 0 0 0 0 0 0 0 0 0 0 0 0 0 0 0
0 0 0 0 0 0 0 0 0 0 0 0 0 0 0 0 0 0 0 0 0 0 0 0 0 0 0 0 0 0 0 0 0 0 0 0 0 0 0 0 0 0 0 0
0 0 0 0 0 0 0 0 0 0 0 0 0 0 0 0 0 0 0 0 0 0 0 0 0 0 0 0 0 0 0 0 0 0 0 0 0 0 0 0 0 0 0 0
0 0 0 0 0 0 0 0 0 0 0 0 0 0 0 0 0 0 0 0 0 0 0 0 0 0 0 0 0 0 0 0 0 0 0 0 0 0 0 0 0 0 0 0
0 0 0 0 0 0 0 0 0 0 0 0 0 0 0 0 0 0 0 0 0 0 0 0 0 0 0 0 0 0 0 0 0 0 0 0 0 0 0 0 0 0 0 0
0 0 0 0 0 0 0 0 0 0 0 0 0 0 0 0 0 0 0 0 0 0 0 0 0 0 0 0 0 0 0 0 0 0 0 0 0 0 0 0 0 0 0 0
0 0 0 0 0 0 0 0 0 0 0 0 0 0 0 0 0 0 0 0 0 0 0 0 0 0 0 0 0 0 0 0 0 0 0 0 0 0 0 0 0 0 0 0
0 0 0 0 0 0 0 0 0 0 0 0 0 0 0 0 0 0 0 0 0 0 0 0 0 0 0 0 0 0 0 0 0 0 0 0 0 0 0 0 0 0 0 0
0 0 0 0 0 0 0 0 0 0 0 0 0 0 0 0 0 0 0 0 0 0 0 0 0 0 0 0 0 0 0 0 0 0 0 0 0 0 0 0 0 0 0 0
Wind_Speed_500mb
17 10 19 27 18 7 10 8 14 4 7 3 12 13 27 31 34 42 55 69 69 68 59 55 49 43 38 33 38 43 50 45 37 29 22 23 24 20 17 11 1 9 16 21
5 33 23 9 15 15 8 9 28 18 13 13 20 18 22 11 16 45 64 66 71 67 64 59 51 45 38 33 35 45 52 45 42 34 32 32 29 24 15 7 12 19 24 27
32 11 31 16 10 16 17 31 28 17 8 9 14 19 19 13 18 38 55 72 63 76 74 64 55 47 41 41 46 55 54 49 42 37 36 33 27 18 8 10 17 22 28 34
25 26 30 27 35 24 23 19 10 10 5 13 5 11 7 8 13 11 38 57 68 78 74 69 61 55 54 53 53 54 52 48 43 37 32 24 16 10 8 14 22 27 31 34
25 36 37 30 27 27 17 12 17 10 9 4 11 9 11 16 15 17 24 54 70 82 83 79 72 64 62 60 58 54 52 49 43 35 24 12 4 5 11 18 20 23 26 29
25 18 33 24 20 34 12 5 3 1 6 12 29 17 11 16 21 13 21 60 77 83 85 80 72 70 69 65 62 57 55 50 40 26 12 4 7 12 17 19 21 22 23 24
9 21 9 15 16 11 12 13 5 7 3 20 19 22 38 11 14 21 33 61 80 87 94 90 86 81 75 70 63 58 51 43 29 16 6 3 9 16 20 18 14 16 22 20
31 16 36 16 28 14 39 29 13 14 15 14 12 14 12 18 33 35 52 78 77 83 95 97 91 83 75 68 61 55 45 35 23 13 4 3 11 18 13 11 14 15 18 23
28 29 11 31 11 30 11 30 28 9 2 4 10 13 10 3 10 7 31 58 72 86 101 105 94 84 77 72 62 52 42 31 21 12 4 3 12 14 12 15 16 18 25 31
9 2 13 30 13 21 25 18 8 6 11 32 10 11 13 8 16 9 19 46 60 69 85 102 93 85 76 69 60 47 35 27 20 11 5 5 14 14 14 18 26 33 39 46
17 11 4 28 35 46 22 20 13 12 11 16 26 20 15 36 32 29 27 52 69 81 93 104 93 83 75 65 55 48 38 27 19 14 8 11 11 13 20 28 37 43 44 43
54 9 8 27 6 29 53 53 42 14 8 9 12 42 8 12 12 21 29 43 54 68 84 101 93 83 74 64 55 48 39 29 22 13 10 11 13 20 29 38 42 42 45 48
38 13 5 11 12 6 33 26 32 23 4 35 14 9 13 6 12 29 40 50 62 73 86 94 88 83 72 63 56 48 39 30 20 14 15 16 22 29 36 40 42 44 48 53
39 18 52 45 23 18 15 38 40 38 30 26 55 32 5 10 17 19 38 60 73 84 95 97 91 82 72 65 58 50 40 28 21 19 19 22 28 34 36 39 43 47 50 51
37 48 31 37 3 36 21 26 41 59 51 34 39 54 37 26 23 37 53 56 64 79 96 101 92 82 74 67 59 47 36 30 23 19 19 23 27 31 37 42 44 44 44 44
14 7 13 18 32 23 20 34 42 48 49 55 46 47 12 31 32 37 57 64 65 71 90 99 89 83 76 69 58 47 37 28 19 17 19 23 29 37 42 40 39 39 38 39
28 12 9 32 12 7 27 58 47 42 47 42 49 35 17 14 32 47 58 75 85 88 99 103 96 87 78 66 55 45 33 22 17 18 22 28 36 37 35 34 35 32 30 27
13 17 6 4 15 22 17 17 48 52 49 44 48 17 32 27 64 71 91 96 81 86 98 97 93 84 74 61 48 36 25 15 19 19 31 35 32 30 30 31 30 28 24 27
5 18 7 9 20 10 21 10 14 27 50 54 43 18 16 32 32 6 65 85 104 112 106 100 94 79 66 54 41 27 13 15 21 32 31 29 29 26 26 27 28 29 29 31
8 11 20 8 14 24 1 15 17 9 38 18 30 25 24 38 15 11 71 78 80 91 105 99 85 72 60 48 29 16 12 24 30 26 26 26 26 24 23 23 26 29 33 37
8 9 31 12 9 13 12 7 17 22 10 11 48 37 48 28 18 50 82 81 87 100 100 91 78 65 46 30 15 13 24 26 24 22 21 20 21 23 22 24 27 31 34 38
15 15 7 5 2 22 13 10 18 9 2 3 28 41 53 34 37 65 88 91 96 99 93 83 70 51 31 12 14 24 22 21 16 11 9 10 12 14 18 22 25 29 35 41
7 9 12 15 12 5 14 5 12 7 8 10 21 28 44 43 59 77 85 90 98 102 89 68 46 33 16 19 29 23 21 15 11 7 6 6 9 12 16 21 27 33 38 42
4 3 7 7 11 14 14 21 9 16 5 11 13 26 43 62 71 74 78 90 95 86 75 52 38 19 30 34 29 25 23 20 18 14 12 11 12 14 19 26 33 39 41 43
7 17 12 8 7 4 16 27 30 19 13 18 24 36 54 69 73 85 87 92 85 73 56 40 31 45 42 36 32 30 27 22 17 11 7 5 7 12 17 24 30 33 35 43
10 13 13 13 21 17 17 50 39 41 41 41 48 53 55 67 80 83 86 77 69 61 54 50 47 43 39 37 35 31 26 19 12 7 1 4 10 15 22 25 25 31 37 41
Wind_Direction_500mb
192 185 204 205 204 173 147 204 252 251 181 192 233 255 271 283 229 215 200 200 205 200 194 196 201 207 215 207 194 190 182 180 182 202 199 172 162 160 159 159 86 335 330 322
141 224 212 207 179 198 202 230 255 303 211 179 264 256 259 242 230 207 202 197 198 195 189 192 194 199 204 198 182 174 172 180 181 182 181 175 174 173 185 229 285 302 310 314
205 191 188 177 166 183 218 229 252 227 352 254 271 278 256 255 203 212 209 210 197 190 181 182 183 187 190 183 172 168 172 176 178 178 178 174 174 181 214 269 290 309 322 323
232 212 181 198 217 188 230 201 211 247 117 264 147 280 264 259 215 205 192 199 199 194 190 182 178 181 179 174 174 175 172 171 170 168 171 173 186 218 271 314 325 325 325 329
220 179 185 203 213 187 230 146 190 216 202 262 265 265 223 214 217 212 201 194 197 198 194 181 180 178 174 177 179 176 172 168 164 162 164 172 239 323 335 329 321 323 333 342
229 202 194 203 183 203 151 112 296 139 157 251 236 218 201 211 224 201 198 195 197 195 195 187 179 177 176 175 176 174 172 167 166 171 187 260 343 353 344 340 342 344 346 338
168 206 219 154 187 163 171 116 290 287 203 251 212 232 246 242 222 200 191 194 196 196 195 186 179 178 177 175 174 172 173 167 168 179 192 346 350 349 352 352 342 328 325 331
205 215 190 176 196 177 203 196 197 205 227 254 189 235 239 219 227 230 216 202 189 188 192 186 183 181 179 176 176 175 175 175 176 181 176 347 354 356 349 331 317 314 325 326
196 232 175 188 147 168 176 209 208 293 144 310 218 288 298 218 263 169 168 175 183 188 188 187 185 184 181 178 177 178 178 179 174 167 166 2 354 338 316 304 301 306 308 309
198 276 203 193 152 220 180 152 153 212 236 254 226 240 230 286 246 181 170 182 184 184 183 187 185 182 179 178 176 178 182 181 178 190 212 311 323 308 295 302 309 312 311 308
178 165 297 151 200 192 194 210 202 170 166 233 269 258 207 221 213 192 190 187 182 182 183 186 183 179 178 177 179 180 182 190 196 211 258 301 295 290 304 312 314 313 310 308
205 133 178 206 297 217 207 213 203 205 228 239 245 252 166 224 187 171 181 178 179 181 181 184 180 177 177 179 182 183 182 191 205 220 248 262 280 300 312 315 313 311 309 306
182 192 97 320 300 229 209 212 210 219 80 224 207 244 17 99 141 172 160 167 175 179 182 180 178 178 180 182 181 181 187 197 200 221 251 273 297 308 315 314 311 308 305 303
175 190 209 217 235 162 188 202 210 208 227 220 236 250 165 164 166 158 163 173 178 180 182 179 178 180 182 181 182 187 191 197 216 236 264 289 302 311 312 308 308 308 307 308
182 220 213 231 223 199 189 192 200 216 222 210 243 242 227 187 185 189 175 169 170 174 177 179 181 180 180 182 186 188 193 203 220 245 267 291 302 308 309 308 309 308 308 312
190 241 146 215 218 219 235 224 217 219 222 241 250 253 188 193 176 156 175 171 174 177 177 182 183 181 181 184 184 186 194 204 218 247 279 297 307 311 311 312 311 310 311 319
182 129 130 224 168 172 252 228 225 227 228 227 233 244 150 167 180 181 176 178 179 180 183 185 184 182 181 181 185 189 194 203 233 268 294 308 309 309 311 313 313 310 317 326
152 164 122 191 138 216 250 204 223 229 237 233 244 207 192 188 196 194 195 183 181 182 185 187 183 181 179 179 180 187 189 224 261 291 304 304 303 303 308 314 316 319 331 339
98 173 169 190 200 298 263 209 159 189 238 231 234 195 177 160 144 123 194 191 188 188 187 186 184 178 175 178 181 184 219 275 295 298 293 293 292 296 306 317 322 325 327 328
131 212 203 169 202 224 3 191 180 105 264 178 188 178 148 144 165 219 189 187 185 184 188 181 177 174 173 173 183 210 272 289 281 279 283 285 281 284 296 314 325 329 330 329
133 150 210 189 226 280 232 179 142 170 257 216 184 173 162 183 192 182 183 184 183 179 179 175 172 170 174 175 210 262 271 263 266 274 285 286 280 285 295 311 320 325 326 325
161 154 171 148 161 253 154 91 173 220 26 128 191 178 181 197 178 174 171 168 174 174 170 169 167 168 172 203 248 243 236 240 253 269 289 296 295 308 318 325 332 335 333 333
183 175 170 189 206 265 217 194 209 203 183 166 185 195 185 149 148 151 155 161 168 169 164 162 166 170 181 249 221 216 210 194 176 151 131 91 48 26 16 9 7 4 357 350
238 174 151 109 239 230 227 230 210 193 172 182 206 190 184 159 155 150 150 157 163 163 162 165 170 220 215 196 190 180 168 159 146 129 114 92 68 48 33 22 16 11 359 350
175 151 166 254 262 3 257 232 222 212 207 184 169 175 167 161 150 155 157 162 163 165 166 179 197 185 183 176 169 165 159 151 145 142 122 84 40 29 21 13 4 3 0 356
190 171 182 212 179 184 213 221 210 198 189 181 167 153 159 167 163 167 163 163 164 164 166 168 174 179 176 171 168 165 161 160 161 162 177 332 339 348 345 342 343 344 347 348
Wind_Speed_850mb
17 10 19 27 18 7 10 8 14 4 7 3 12 13 27 31 34 42 55 69 69 68 59 55 49 43 38 33 38 43 50 45 37 29 22 23 24 20 17 11 1 9 16 21
5 33 23 9 15 15 8 9 28 18 13 13 20 18 22 11 16 45 64 66 71 67 64 59 51 45 38 33 35 45 52 45 42 34 32 32 29 24 15 7 12 19 24 27
32 11 31 16 10 16 17 31 28 17 8 9 14 19 19 13 18 38 55 72 63 76 74 64 55 47 41 41 46 55 54 49 42 37 36 33 27 18 8 10 17 22 28 34
25 26 30 27 35 24 23 19 10 10 5 13 5 11 7 8 13 11 38 57 68 78 74 69 61 55 54 53 53 54 52 48 43 37 32 24 16 10 8 14 22 27 31 34
25 36 37 30 27 27 17 12 17 10 9 4 11 9 11 16 15 17 24 54 70 82 83 79 72 64 62 60 58 54 52 49 43 35 24 12 4 5 11 18 20 23 26 29
25 18 33 24 20 34 12 5 3 1 6 12 29 17 11 16 21 13 21 60 77 83 85 80 72 70 69 65 62 57 55 50 40 26 12 4 7 12 17 19 21 22 23 24
9 21 9 15 16 11 12 13 5 7 3 20 19 22 38 11 14 21 33 61 80 87 94 90 86 81 75 70 63 58 51 43 29 16 6 3 9 16 20 18 14 16 22 20
31 16 36 16 28 14 39 29 13 14 15 14 12 14 12 18 33 35 52 78 77 83 95 97 91 83 75 68 61 55 45 35 23 13 4 3 11 18 13 11 14 15 18 23
28 29 11 31 11 30 11 30 28 9 2 4 10 13 10 3 10 7 31 58 72 86 101 105 94 84 77 72 62 52 42 31 21 12 4 3 12 14 12 15 16 18 25 31
9 2 13 30 13 21 25 18 8 6 11 32 10 11 13 8 16 9 19 46 60 69 85 102 93 85 76 69 60 47 35 27 20 11 5 5 14 14 14 18 26 33 39 46
17 11 4 28 35 46 22 20 13 12 11 16 26 20 15 36 32 29 27 52 69 81 93 104 93 83 75 65 55 48 38 27 19 14 8 11 11 13 20 28 37 43 44 43
54 9 8 27 6 29 53 53 42 14 8 9 12 42 8 12 12 21 29 43 54 68 84 101 93 83 74 64 55 48 39 29 22 13 10 11 13 20 29 38 42 42 45 48
38 13 5 11 12 6 33 26 32 23 4 35 14 9 13 6 12 29 40 50 62 73 86 94 88 83 72 63 56 48 39 30 20 14 15 16 22 29 36 40 42 44 48 53
39 18 52 45 23 18 15 38 40 38 30 26 55 32 5 10 17 19 38 60 73 84 95 97 91 82 72 65 58 50 40 28 21 19 19 22 28 34 36 39 43 47 50 51
37 48 31 37 3 36 21 26 41 59 51 34 39 54 37 26 23 37 53 56 64 79 96 101 92 82 74 67 59 47 36 30 23 19 19 23 27 31 37 42 44 44 44 44
14 7 13 18 32 23 20 34 42 48 49 55 46 47 12 31 32 37 57 64 65 71 90 99 89 83 76 69 58 47 37 28 19 17 19 23 29 37 42 40 39 39 38 39
28 12 9 32 12 7 27 58 47 42 47 42 49 35 17 14 32 47 58 75 85 88 99 103 96 87 78 66 55 45 33 22 17 18 22 28 36 37 35 34 35 32 30 27
13 17 6 4 15 22 17 17 48 52 49 44 48 17 32 27 64 71 91 96 81 86 98 97 93 84 74 61 48 36 25 15 19 19 31 35 32 30 30 31 30 28 24 27
5 18 7 9 20 10 21 10 14 27 50 54 43 18 16 32 32 6 65 85 104 112 106 100 94 79 66 54 41 27 13 15 21 32 31 29 29 26 26 27 28 29 29 31
8 11 20 8 14 24 1 15 17 9 38 18 30 25 24 38 15 11 71 78 80 91 105 99 85 72 60 48 29 16 12 24 30 26 26 26 26 24 23 23 26 29 33 37
8 9 31 12 9 13 12 7 17 22 10 11 48 37 48 28 18 50 82 81 87 100 100 91 78 65 46 30 15 13 24 26 24 22 21 20 21 23 22 24 27 31 34 38
15 15 7 5 2 22 13 10 18 9 2 3 28 41 53 34 37 65 88 91 96 99 93 83 70 51 31 12 14 24 22 21 16 11 9 10 12 14 18 22 25 29 35 41
7 9 12 15 12 5 14 5 12 7 8 10 21 28 44 43 59 77 85 90 98 102 89 68 46 33 16 19 29 23 21 15 11 7 6 6 9 12 16 21 27 33 38 42
4 3 7 7 11 14 14 21 9 16 5 11 13 26 43 62 71 74 78 90 95 86 75 52 38 19 30 34 29 25 23 20 18 14 12 11 12 14 19 26 33 39 41 43
7 17 12 8 7 4 16 27 30 19 13 18 24 36 54 69 73 85 87 92 85 73 56 40 31 45 42 36 32 30 27 22 17 11 7 5 7 12 17 24 30 33 35 43
10 13 13 13 21 17 17 50 39 41 41 41 48 53 55 67 80 83 86 77 69 61 54 50 47 43 39 37 35 31 26 19 12 7 1 4 10 15 22 25 25 31 37 41
Wind_Direction_850mb
192 185 204 205 204 173 147 204 252 251 181 192 233 255 271 283 229 215 200 200 205 200 194 196 201 207 215 207 194 190 182 180 182 202 199 172 162 160 159 159 86 335 330 322
141 224 212 207 179 198 202 230 255 303 211 179 264 256 259 242 230 207 202 197 198 195 189 192 194 199 204 198 182 174 172 180 181 182 181 175 174 173 185 229 285 302 310 314
205 191 188 177 166 183 218 229 252 227 352 254 271 278 256 255 203 212 209 210 197 190 181 182 183 187 190 183 172 168 172 176 178 178 178 174 174 181 214 269 290 309 322 323
232 212 181 198 217 188 230 201 211 247 117 264 147 280 264 259 215 205 192 199 199 194 190 182 178 181 179 174 174 175 172 171 170 168 171 173 186 218 271 314 325 325 325 329
220 179 185 203 213 187 230 146 190 216 202 262 265 265 223 214 217 212 201 194 197 198 194 181 180 178 174 177 179 176 172 168 164 162 164 172 239 323 335 329 321 323 333 342
229 202 194 203 183 203 151 112 296 139 157 251 236 218 201 211 224 201 198 195 197 195 195 187 179 177 176 175 176 174 172 167 166 171 187 260 343 353 344 340 342 344 346 338
168 206 219 154 187 163 171 116 290 287 203 251 212 232 246 242 222 200 191 194 196 196 195 186 179 178 177 175 174 172 173 167 168 179 192 346 350 349 352 352 342 328 325 331
205 215 190 176 196 177 203 196 197 205 227 254 189 235 239 219 227 230 216 202 189 188 192 186 183 181 179 176 176 175 175 175 176 181 176 347 354 356 349 331 317 314 325 326
196 232 175 188 147 168 176 209 208 293 144 310 218 288 298 218 263 169 168 175 183 188 188 187 185 184 181 178 177 178 178 179 174 167 166 2 354 338 316 304 301 306 308 309
198 276 203 193 152 220 180 152 153 212 236 254 226 240 230 286 246 181 170 182 184 184 183 187 185 182 179 178 176 178 182 181 178 190 212 311 323 308 295 302 309 312 311 308
178 165 297 151 200 192 194 210 202 170 166 233 269 258 207 221 213 192 190 187 182 182 183 186 183 179 178 177 179 180 182 190 196 211 258 301 295 290 304 312 314 313 310 308
205 133 178 206 297 217 207 213 203 205 228 239 245 252 166 224 187 171 181 178 179 181 181 184 180 177 177 179 182 183 182 191 205 220 248 262 280 300 312 315 313 311 309 306
182 192 97 320 300 229 209 212 210 219 80 224 207 244 17 99 141 172 160 167 175 179 182 180 178 178 180 182 181 181 187 197 200 221 251 273 297 308 315 314 311 308 305 303
175 190 209 217 235 162 188 202 210 208 227 220 236 250 165 164 166 158 163 173 178 180 182 179 178 180 182 181 182 187 191 197 216 236 264 289 302 311 312 308 308 308 307 308
182 220 213 231 223 199 189 192 200 216 222 210 243 242 227 187 185 189 175 169 170 174 177 179 181 180 180 182 186 188 193 203 220 245 267 291 302 308 309 308 309 308 308 312
190 241 146 215 218 219 235 224 217 219 222 241 250 253 188 193 176 156 175 171 174 177 177 182 183 181 181 184 184 186 194 204 218 247 279 297 307 311 311 312 311 310 311 319
182 129 130 224 168 172 252 228 225 227 228 227 233 244 150 167 180 181 176 178 179 180 183 185 184 182 181 181 185 189 194 203 233 268 294 308 309 309 311 313 313 310 317 326
152 164 122 191 138 216 250 204 223 229 237 233 244 207 192 188 196 194 195 183 181 182 185 187 183 181 179 179 180 187 189 224 261 291 304 304 303 303 308 314 316 319 331 339
98 173 169 190 200 298 263 209 159 189 238 231 234 195 177 160 144 123 194 191 188 188 187 186 184 178 175 178 181 184 219 275 295 298 293 293 292 296 306 317 322 325 327 328
131 212 203 169 202 224 3 191 180 105 264 178 188 178 148 144 165 219 189 187 185 184 188 181 177 174 173 173 183 210 272 289 281 279 283 285 281 284 296 314 325 329 330 329
133 150 210 189 226 280 232 179 142 170 257 216 184 173 162 183 192 182 183 184 183 179 179 175 172 170 174 175 210 262 271 263 266 274 285 286 280 285 295 311 320 325 326 325
161 154 171 148 161 253 154 91 173 220 26 128 191 178 181 197 178 174 171 168 174 174 170 169 167 168 172 203 248 243 236 240 253 269 289 296 295 308 318 325 332 335 333 333
183 175 170 189 206 265 217 194 209 203 183 166 185 195 185 149 148 151 155 161 168 169 164 162 166 170 181 249 221 216 210 194 176 151 131 91 48 26 16 9 7 4 357 350
238 174 151 109 239 230 227 230 210 193 172 182 206 190 184 159 155 150 150 157 163 163 162 165 170 220 215 196 190 180 168 159 146 129 114 92 68 48 33 22 16 11 359 350
175 151 166 254 262 3 257 232 222 212 207 184 169 175 167 161 150 155 157 162 163 165 166 179 197 185 183 176 169 165 159 151 145 142 122 84 40 29 21 13 4 3 0 356
190 171 182 212 179 184 213 221 210 198 189 181 167 153 159 167 163 167 163 163 164 164 166 168 174 179 176 171 168 165 161 160 161 162 177 332 339 348 345 342 343 344 347 348